Flight Track Log - Related Links

Times and Time Zones

All times are in EDT time to prevent confusion due to time zone crossing. See the AWE1940 flight status page for this flight to view local times or setup timezone preferences in your user account.

Time Position Orientation Groundspeed Altitude Reporting Facility
EDT Latitude Longitude Course Direction KTS MPH feet Rate Location/Type
Sun 11:56:31 PM 33.5683 -86.7489 60° Northeast 163 188 1,300  Level Atlanta Center
Sun 11:57:01 PM 33.5814 -86.7217 60° Northeast 171 197 2,100 1,726 Climbing Atlanta Center
Sun 11:57:44 PM 33.5953 -86.6597 75° East 260 299 3,400 2,680 Climbing Atlanta Center
Sun 11:58:44 PM 33.5950 -86.5675 90° East 272 313 6,700 3,350 Climbing Atlanta Center
Sun 11:59:44 PM 33.5992 -86.4706 87° East 284 327 10,100 2,300 Climbing Atlanta Center
Mon 12:00:44 AM 33.6283 -86.3689 71° East 302 348 11,300 1,650 Climbing Atlanta Center
Mon 12:01:44 AM 33.6703 -86.2403 69° East 351 404 13,400 2,350 Climbing Atlanta Center
Mon 12:02:44 AM 33.7142 -86.1142 67° East 385 443 16,000 2,500 Climbing Atlanta Center
Mon 12:03:44 AM 33.7644 -85.9803 66° East 410 472 18,400 2,650 Climbing Atlanta Center
Mon 12:04:44 AM 33.8100 -85.8564 66° East 419 482 21,300 1,750 Climbing Atlanta Center
Mon 12:05:44 AM 33.8556 -85.7372 65° Northeast 419 482 21,900 1,150 Climbing Atlanta Center
Mon 12:06:44 AM 33.9161 -85.5808 65° Northeast 439 505 23,600 1,650 Climbing Atlanta Center
Mon 12:07:44 AM 33.9722 -85.4314 66° East 464 534 25,200 1,550 Climbing Atlanta Center
Mon 12:08:44 AM 34.0300 -85.2819 65° Northeast 485 558 26,700 2,000 Climbing Atlanta Center
Mon 12:09:44 AM 34.0878 -85.1350 65° Northeast 490 564 29,200 2,300 Climbing Atlanta Center
Mon 12:10:44 AM 34.1267 -84.9847 73° East 476 548 31,300 1,900 Climbing Atlanta Center
Mon 12:11:44 AM 34.1444 -84.8344 82° East 452 520 33,000 1,350 Climbing Atlanta Center
Mon 12:12:44 AM 34.1619 -84.6864 82° East 447 514 34,000 750 Climbing Atlanta Center
Mon 12:13:44 AM 34.1814 -84.5511 80° East 453 521 34,500 500 Climbing Atlanta Center
Mon 12:14:44 AM 34.1967 -84.3928 83° East 462 532 35,000 250 Climbing Atlanta Center
Mon 12:15:44 AM 34.2156 -84.2422 81° East 462 532 35,000  Level Atlanta Center
Mon 12:16:44 AM 34.2347 -84.0714 82° East 462 532 35,000  Level Atlanta Center
Mon 12:17:44 AM 34.2514 -83.9131 83° East 469 540 35,000  Level Atlanta Center
Mon 12:18:44 AM 34.2781 -83.7597 78° East 464 534 35,000  Level Atlanta Center
Mon 12:19:44 AM 34.3278 -83.6136 68° East 464 534 35,000  Level Atlanta Center
Mon 12:20:44 AM 34.3794 -83.4650 67° East 469 540 35,000 -50 Level Atlanta Center
Mon 12:21:44 AM 34.4286 -83.3136 68° East 475 547 34,900  Descending Atlanta Center
Mon 12:22:44 AM 34.4800 -83.1644 67° East 475 547 35,000 50 Climbing Atlanta Center
Mon 12:23:44 AM 34.5308 -83.0150 68° East 475 547 35,000 -200 Level Atlanta Center
Mon 12:24:44 AM 34.5839 -82.8706 66° East 475 547 34,600 -850 Descending Atlanta Center
Mon 12:25:44 AM 34.6283 -82.7311 69° East 475 547 33,300 -1,600 Descending Atlanta Center
Mon 12:26:44 AM 34.6789 -82.5889 67° East 470 541 31,400 -1,900 Descending Atlanta Center
Mon 12:27:44 AM 34.7292 -82.4364 68° East 470 541 29,500 -1,900 Descending Atlanta Center
Mon 12:28:44 AM 34.7814 -82.2836 67° East 476 548 27,600 -1,950 Descending Atlanta Center
Mon 12:29:44 AM 34.8333 -82.1258 68° East 481 554 25,600 -2,000 Descending Atlanta Center
Mon 12:30:44 AM 34.8828 -81.9650 69° East 486 559 23,600 -2,050 Descending Atlanta Center
Mon 12:31:44 AM 34.9303 -81.8169 69° East 476 548 21,500 -2,050 Descending Atlanta Center
Mon 12:32:44 AM 34.9858 -81.6633 66° East 463 533 19,500 -1,950 Descending Atlanta Center
Mon 12:33:44 AM 35.0331 -81.5122 69° East 463 533 17,600 -1,950 Descending Atlanta Center
Mon 12:34:44 AM 35.0781 -81.3739 68° East 449 517 15,600 -1,850 Descending Atlanta Center
Mon 12:35:44 AM 35.1189 -81.2406 69° East 430 495 13,900 -1,350 Descending Atlanta Center
Mon 12:36:44 AM 35.1814 -81.1444 51° Northeast 379 436 12,900 -1,450 Descending Atlanta Center
Mon 12:37:44 AM 35.2550 -81.0883 32° Northeast 326 375 11,000 -1,950 Descending Atlanta Center
Mon 12:38:44 AM 35.3097 -81.0153 47° Northeast 306 352 9,000 -2,400 Descending Atlanta Center
Mon 12:39:44 AM 35.3642 -80.9469 46° Northeast 286 329 6,200 -2,100 Descending Atlanta Center
Mon 12:40:44 AM 35.4103 -80.8739 52° Northeast 275 316 4,800 -1,524 Descending Atlanta Center
Mon 12:41:50 AM 35.3708 -80.8017 124° Southeast 232 267 3,000 -850 Descending Atlanta Center
Mon 12:42:51 AM 35.3147 -80.8039 182° South 211 243 3,000 -298 Level Atlanta Center
Mon 12:43:51 AM 35.2825 -80.8533 231° Southwest 178 205 2,400 -645 Descending Atlanta Center
Mon 12:44:52 AM 35.2542 -80.8875 225° Southwest 125 144 1,700 -689 Descending Atlanta Center
Mon 12:45:53 AM 35.2322 -80.9214 232° Southwest 122 140 1,000 -689 Descending Atlanta Center
Mon 12:47:00 AM 35.2000 -80.9333 180° South  Level FlightAware Approximate
Mon 12:54:00 AM 35.2137 -80.9491 180° South  Level Estimated

Login

Don't have an account? Register now (free) for customized features, flight alerts, and more!